contact:dominique.lefevre@mio.osupytheas.fr, maurice.libes@osupytheas.fr, didier.mallarino@osupytheas.fr
Project:EMSO http://www.emso-fr.org/EMSO-France
Depth: 2436.0 m
Title:EMSO Ligure Ouest : Data MII capteur MICROCAT
DateTime_Computer,Latitude,Longitude,Temperature,Conductivity,Pressure,DateTime_Instrument
DateTime_Computer,Latitude,Longitude,degC,S m-1,dbar,DateTime_Instrument
2020-11-25T00:03:01Z,42.805,6.029,13.2975,4.59978,2470.217,2020-11-25T02:03:58Z
2020-11-25T00:06:04Z,42.805,6.029,13.2974,4.59977,2470.194,2020-11-25T02:07:01Z
2020-11-25T00:09:07Z,42.805,6.029,13.2976,4.59978,2470.171,2020-11-25T02:10:04Z
2020-11-25T00:12:10Z,42.805,6.029,13.2974,4.59978,2470.217,2020-11-25T02:13:07Z
2020-11-25T00:15:13Z,42.805,6.029,13.2976,4.59978,2470.18,2020-11-25T02:16:10Z
2020-11-25T00:18:16Z,42.805,6.029,13.2976,4.59977,2470.203,2020-11-25T02:19:14Z
2020-11-25T00:21:19Z,42.805,6.029,13.2978,4.59978,2470.18,2020-11-25T02:22:17Z
2020-11-25T00:24:23Z,42.805,6.029,13.2975,4.59977,2470.227,2020-11-25T02:25:20Z
2020-11-25T00:27:26Z,42.805,6.029,13.2974,4.59977,2470.217,2020-11-25T02:28:23Z
2020-11-25T00:30:29Z,42.805,6.029,13.2974,4.59978,2470.24,2020-11-25T02:31:26Z
2020-11-25T00:33:32Z,42.805,6.029,13.2976,4.59978,2470.203,2020-11-25T02:34:29Z
2020-11-25T00:36:35Z,42.805,6.029,13.2974,4.59978,2470.25,2020-11-25T02:37:32Z
2020-11-25T00:39:38Z,42.805,6.029,13.2976,4.59976,2470.194,2020-11-25T02:40:35Z
2020-11-25T00:42:41Z,42.805,6.029,13.2974,4.59978,2470.203,2020-11-25T02:43:39Z
2020-11-25T00:45:44Z,42.805,6.029,13.2973,4.59978,2470.203,2020-11-25T02:46:42Z
2020-11-25T00:48:48Z,42.805,6.029,13.2977,4.59978,2470.203,2020-11-25T02:49:45Z
2020-11-25T00:51:51Z,42.805,6.029,13.2976,4.59978,2470.203,2020-11-25T02:52:48Z
2020-11-25T00:54:54Z,42.805,6.029,13.2976,4.59978,2470.18,2020-11-25T02:55:51Z
2020-11-25T00:57:57Z,42.805,6.029,13.2974,4.59978,2470.203,2020-11-25T02:58:54Z
2020-11-25T01:01:00Z,42.805,6.029,13.2974,4.59978,2470.18,2020-11-25T03:01:57Z
2020-11-25T01:04:03Z,42.805,6.029,13.2976,4.59978,2470.203,2020-11-25T03:05:00Z
2020-11-25T01:07:06Z,42.805,6.029,13.2976,4.59978,2470.203,2020-11-25T03:08:04Z
2020-11-25T01:10:09Z,42.805,6.029,13.2975,4.59978,2470.18,2020-11-25T03:11:07Z
2020-11-25T01:13:12Z,42.805,6.029,13.2974,4.59978,2470.203,2020-11-25T03:14:10Z
2020-11-25T01:16:16Z,42.805,6.029,13.2974,4.59978,2470.18,2020-11-25T03:17:13Z
2020-11-25T01:19:19Z,42.805,6.029,13.2979,4.59980,2470.227,2020-11-25T03:20:16Z
2020-11-25T01:22:22Z,42.805,6.029,13.2975,4.59978,2470.203,2020-11-25T03:23:19Z
2020-11-25T01:25:25Z,42.805,6.029,13.2976,4.59978,2470.18,2020-11-25T03:26:22Z
2020-11-25T01:28:28Z,42.805,6.029,13.2974,4.59978,2470.24,2020-11-25T03:29:25Z
2020-11-25T01:31:31Z,42.805,6.029,13.2974,4.59978,2470.194,2020-11-25T03:32:28Z
2020-11-25T01:34:34Z,42.805,6.029,13.2975,4.59978,2470.189,2020-11-25T03:35:32Z
2020-11-25T01:37:37Z,42.805,6.029,13.2974,4.59978,2470.217,2020-11-25T03:38:35Z
2020-11-25T01:40:41Z,42.805,6.029,13.2977,4.59978,2470.24,2020-11-25T03:41:38Z
2020-11-25T01:43:44Z,42.805,6.029,13.2979,4.59978,2470.217,2020-11-25T03:44:41Z
2020-11-25T01:46:47Z,42.805,6.029,13.2971,4.59978,2470.25,2020-11-25T03:47:44Z
2020-11-25T01:49:50Z,42.805,6.029,13.2973,4.59980,2470.24,2020-11-25T03:50:47Z
2020-11-25T01:52:53Z,42.805,6.029,13.2974,4.59978,2470.24,2020-11-25T03:53:50Z
2020-11-25T01:55:56Z,42.805,6.029,13.2975,4.59978,2470.24,2020-11-25T03:56:53Z
2020-11-25T01:58:59Z,42.805,6.029,13.2974,4.59978,2470.227,2020-11-25T03:59:57Z
2020-11-25T02:02:02Z,42.805,6.029,13.2974,4.59978,2470.25,2020-11-25T04:03:00Z
2020-11-25T02:05:06Z,42.805,6.029,13.2976,4.59978,2470.25,2020-11-25T04:06:03Z
2020-11-25T02:08:09Z,42.805,6.029,13.2975,4.59979,2470.273,2020-11-25T04:09:06Z
2020-11-25T02:11:12Z,42.805,6.029,13.2975,4.59978,2470.227,2020-11-25T04:12:09Z
2020-11-25T02:14:15Z,42.805,6.029,13.2976,4.59978,2470.264,2020-11-25T04:15:12Z
2020-11-25T02:17:18Z,42.805,6.029,13.2976,4.59978,2470.217,2020-11-25T04:18:15Z
2020-11-25T02:20:21Z,42.805,6.029,13.2975,4.59978,2470.25,2020-11-25T04:21:18Z
2020-11-25T02:23:24Z,42.805,6.029,13.2977,4.59979,2470.227,2020-11-25T04:24:22Z
2020-11-25T02:26:27Z,42.805,6.029,13.2976,4.59979,2470.227,2020-11-25T04:27:25Z
2020-11-25T02:29:31Z,42.805,6.029,13.2976,4.59978,2470.25,2020-11-25T04:30:28Z
2020-11-25T02:32:34Z,42.805,6.029,13.2977,4.59978,2470.227,2020-11-25T04:33:31Z
2020-11-25T02:35:37Z,42.805,6.029,13.2974,4.59978,2470.264,2020-11-25T04:36:34Z
2020-11-25T02:38:40Z,42.805,6.029,13.2976,4.59978,2470.264,2020-11-25T04:39:37Z
2020-11-25T02:41:43Z,42.805,6.029,13.2975,4.59979,2470.24,2020-11-25T04:42:40Z
2020-11-25T02:44:46Z,42.805,6.029,13.2975,4.59978,2470.25,2020-11-25T04:45:43Z
2020-11-25T02:47:49Z,42.805,6.029,13.2977,4.59978,2470.25,2020-11-25T04:48:47Z
2020-11-25T02:50:52Z,42.805,6.029,13.2976,4.59978,2470.264,2020-11-25T04:51:50Z
2020-11-25T02:53:55Z,42.805,6.029,13.2974,4.59978,2470.24,2020-11-25T04:54:53Z
2020-11-25T02:56:59Z,42.805,6.029,13.2976,4.59977,2470.24,2020-11-25T04:57:56Z
2020-11-25T03:00:02Z,42.805,6.029,13.2976,4.59978,2470.273,2020-11-25T05:00:59Z
2020-11-25T03:03:05Z,42.805,6.029,13.2976,4.59981,2470.227,2020-11-25T05:04:02Z
2020-11-25T03:06:08Z,42.805,6.029,13.2971,4.59980,2470.227,2020-11-25T05:07:05Z
2020-11-25T03:09:11Z,42.805,6.029,13.2971,4.59979,2470.273,2020-11-25T05:10:08Z
2020-11-25T03:12:14Z,42.805,6.029,13.2975,4.59978,2470.273,2020-11-25T05:13:11Z
2020-11-25T03:15:17Z,42.805,6.029,13.2974,4.59978,2470.273,2020-11-25T05:16:15Z
2020-11-25T03:18:20Z,42.805,6.029,13.2976,4.59978,2470.273,2020-11-25T05:19:18Z
2020-11-25T03:21:24Z,42.805,6.029,13.2974,4.59978,2470.273,2020-11-25T05:22:21Z
2020-11-25T03:24:27Z,42.805,6.029,13.2976,4.59979,2470.264,2020-11-25T05:25:24Z
2020-11-25T03:27:30Z,42.805,6.029,13.2975,4.59980,2470.25,2020-11-25T05:28:27Z
2020-11-25T03:30:33Z,42.805,6.029,13.2975,4.59979,2470.273,2020-11-25T05:31:30Z
2020-11-25T03:33:36Z,42.805,6.029,13.2975,4.59978,2470.227,2020-11-25T05:34:33Z
2020-11-25T03:36:39Z,42.805,6.029,13.2974,4.59979,2470.25,2020-11-25T05:37:36Z
2020-11-25T03:39:42Z,42.805,6.029,13.2975,4.59978,2470.25,2020-11-25T05:40:40Z
2020-11-25T03:42:45Z,42.805,6.029,13.2978,4.59978,2470.25,2020-11-25T05:43:43Z
2020-11-25T03:45:49Z,42.805,6.029,13.2977,4.59978,2470.287,2020-11-25T05:46:46Z
2020-11-25T03:48:52Z,42.805,6.029,13.2969,4.59980,2470.25,2020-11-25T05:49:49Z
2020-11-25T03:51:55Z,42.805,6.029,13.2976,4.59979,2470.287,2020-11-25T05:52:52Z
2020-11-25T03:54:58Z,42.805,6.029,13.2981,4.59979,2470.273,2020-11-25T05:55:55Z
2020-11-25T03:58:01Z,42.805,6.029,13.2975,4.59978,2470.287,2020-11-25T05:58:58Z
2020-11-25T04:01:04Z,42.805,6.029,13.2973,4.59978,2470.273,2020-11-25T06:02:01Z
2020-11-25T04:04:07Z,42.805,6.029,13.2978,4.59978,2470.25,2020-11-25T06:05:05Z
2020-11-25T04:07:10Z,42.805,6.029,13.2972,4.59978,2470.287,2020-11-25T06:08:08Z
2020-11-25T04:10:14Z,42.805,6.029,13.2974,4.59979,2470.273,2020-11-25T06:11:11Z
2020-11-25T04:13:17Z,42.805,6.029,13.2974,4.59978,2470.264,2020-11-25T06:14:14Z
2020-11-25T04:16:20Z,42.805,6.029,13.2974,4.59978,2470.273,2020-11-25T06:17:17Z
2020-11-25T04:19:23Z,42.805,6.029,13.2970,4.59978,2470.287,2020-11-25T06:20:20Z
2020-11-25T04:22:26Z,42.805,6.029,13.2976,4.59978,2470.264,2020-11-25T06:23:23Z
2020-11-25T04:25:29Z,42.805,6.029,13.2975,4.59978,2470.25,2020-11-25T06:26:26Z
2020-11-25T04:28:32Z,42.805,6.029,13.2976,4.59979,2470.273,2020-11-25T06:29:30Z
2020-11-25T04:31:35Z,42.805,6.029,13.2976,4.59978,2470.297,2020-11-25T06:32:33Z
2020-11-25T04:34:39Z,42.805,6.029,13.2976,4.59978,2470.287,2020-11-25T06:35:36Z
2020-11-25T04:37:42Z,42.805,6.029,13.2976,4.59979,2470.264,2020-11-25T06:38:39Z
2020-11-25T04:40:45Z,42.805,6.029,13.2978,4.59978,2470.273,2020-11-25T06:41:42Z
2020-11-25T04:43:48Z,42.805,6.029,13.2974,4.59980,2470.227,2020-11-25T06:44:45Z
2020-11-25T04:46:51Z,42.805,6.029,13.2978,4.59978,2470.25,2020-11-25T06:47:48Z
2020-11-25T04:49:54Z,42.805,6.029,13.2976,4.59978,2470.25,2020-11-25T06:50:51Z
2020-11-25T04:52:57Z,42.805,6.029,13.2974,4.59978,2470.273,2020-11-25T06:53:55Z
2020-11-25T04:56:00Z,42.805,6.029,13.2976,4.59979,2470.287,2020-11-25T06:56:58Z
2020-11-25T04:59:04Z,42.805,6.029,13.2978,4.59978,2470.273,2020-11-25T07:00:01Z
2020-11-25T05:02:07Z,42.805,6.029,13.2977,4.59980,2470.24,2020-11-25T07:03:04Z
2020-11-25T05:05:10Z,42.805,6.029,13.2979,4.59978,2470.287,2020-11-25T07:06:07Z
2020-11-25T05:08:13Z,42.805,6.029,13.2973,4.59979,2470.297,2020-11-25T07:09:10Z
2020-11-25T05:11:16Z,42.805,6.029,13.2975,4.59979,2470.287,2020-11-25T07:12:13Z
2020-11-25T05:14:19Z,42.805,6.029,13.2974,4.59978,2470.287,2020-11-25T07:15:16Z
2020-11-25T05:17:22Z,42.805,6.029,13.2978,4.59978,2470.25,2020-11-25T07:18:20Z
2020-11-25T05:20:25Z,42.805,6.029,13.2973,4.59978,2470.25,2020-11-25T07:21:23Z
2020-11-25T05:23:28Z,42.805,6.029,13.2976,4.59978,2470.264,2020-11-25T07:24:26Z
2020-11-25T05:26:32Z,42.805,6.029,13.2976,4.59978,2470.297,2020-11-25T07:27:29Z
2020-11-25T05:29:35Z,42.805,6.029,13.2974,4.59978,2470.287,2020-11-25T07:30:32Z
2020-11-25T05:32:38Z,42.805,6.029,13.2975,4.59978,2470.264,2020-11-25T07:33:35Z
2020-11-25T05:35:41Z,42.805,6.029,13.2974,4.59978,2470.287,2020-11-25T07:36:38Z
2020-11-25T05:38:44Z,42.805,6.029,13.2976,4.59978,2470.25,2020-11-25T07:39:41Z
2020-11-25T05:41:47Z,42.805,6.029,13.2973,4.59978,2470.287,2020-11-25T07:42:45Z
2020-11-25T05:44:50Z,42.805,6.029,13.2974,4.59978,2470.287,2020-11-25T07:45:48Z
2020-11-25T05:47:53Z,42.805,6.029,13.2973,4.59978,2470.273,2020-11-25T07:48:51Z
2020-11-25T05:50:57Z,42.805,6.029,13.2975,4.59979,2470.264,2020-11-25T07:51:54Z
2020-11-25T05:54:00Z,42.805,6.029,13.2976,4.59978,2470.287,2020-11-25T07:54:57Z
2020-11-25T05:57:03Z,42.805,6.029,13.2979,4.59978,2470.273,2020-11-25T07:58:00Z
2020-11-25T06:00:06Z,42.805,6.029,13.2974,4.59978,2470.273,2020-11-25T08:01:03Z
2020-11-25T06:03:09Z,42.805,6.029,13.2977,4.59980,2470.264,2020-11-25T08:04:06Z
2020-11-25T06:06:12Z,42.805,6.029,13.2975,4.59978,2470.273,2020-11-25T08:07:10Z
2020-11-25T06:09:15Z,42.805,6.029,13.2982,4.59978,2470.273,2020-11-25T08:10:13Z
2020-11-25T06:12:18Z,42.805,6.029,13.2976,4.59978,2470.273,2020-11-25T08:13:16Z
2020-11-25T06:15:22Z,42.805,6.029,13.2976,4.59978,2470.264,2020-11-25T08:16:19Z
2020-11-25T06:18:25Z,42.805,6.029,13.2977,4.59978,2470.26,2020-11-25T08:19:22Z
2020-11-25T06:21:28Z,42.805,6.029,13.2975,4.59978,2470.273,2020-11-25T08:22:25Z
2020-11-25T06:24:31Z,42.805,6.029,13.2976,4.59978,2470.264,2020-11-25T08:25:28Z
2020-11-25T06:27:34Z,42.805,6.029,13.2976,4.59978,2470.287,2020-11-25T08:28:31Z
2020-11-25T06:30:37Z,42.805,6.029,13.2974,4.59978,2470.227,2020-11-25T08:31:35Z
2020-11-25T06:33:40Z,42.805,6.029,13.2976,4.59978,2470.25,2020-11-25T08:34:38Z
2020-11-25T06:36:43Z,42.805,6.029,13.2976,4.59978,2470.25,2020-11-25T08:37:41Z
2020-11-25T06:39:47Z,42.805,6.029,13.2974,4.59978,2470.264,2020-11-25T08:40:44Z
2020-11-25T06:42:50Z,42.805,6.029,13.2976,4.59978,2470.264,2020-11-25T08:43:47Z
2020-11-25T06:45:53Z,42.805,6.029,13.2972,4.59980,2470.273,2020-11-25T08:46:50Z
2020-11-25T06:48:56Z,42.805,6.029,13.2980,4.59978,2470.25,2020-11-25T08:49:53Z
2020-11-25T06:51:59Z,42.805,6.029,13.2972,4.59978,2470.227,2020-11-25T08:52:56Z
2020-11-25T06:55:02Z,42.805,6.029,13.2973,4.59978,2470.287,2020-11-25T08:56:00Z
2020-11-25T06:58:05Z,42.805,6.029,13.2974,4.59978,2470.287,2020-11-25T08:59:03Z
2020-11-25T07:01:08Z,42.805,6.029,13.2971,4.59978,2470.264,2020-11-25T09:02:06Z
2020-11-25T07:04:12Z,42.805,6.029,13.2979,4.59979,2470.25,2020-11-25T09:05:09Z
2020-11-25T07:07:15Z,42.805,6.029,13.2974,4.59977,2470.273,2020-11-25T09:08:12Z
2020-11-25T07:10:18Z,42.805,6.029,13.2976,4.59978,2470.227,2020-11-25T09:11:15Z
2020-11-25T07:13:21Z,42.805,6.029,13.2974,4.59978,2470.25,2020-11-25T09:14:18Z
2020-11-25T07:16:24Z,42.805,6.029,13.2971,4.59978,2470.25,2020-11-25T09:17:21Z
2020-11-25T07:19:27Z,42.805,6.029,13.2974,4.59979,2470.273,2020-11-25T09:20:25Z
2020-11-25T07:22:30Z,42.805,6.029,13.2976,4.59978,2470.264,2020-11-25T09:23:28Z
2020-11-25T07:25:33Z,42.805,6.029,13.2981,4.59977,2470.25,2020-11-25T09:26:31Z
2020-11-25T07:28:37Z,42.805,6.029,13.2972,4.59978,2470.227,2020-11-25T09:29:34Z
2020-11-25T07:31:40Z,42.805,6.029,13.2974,4.59978,2470.24,2020-11-25T09:32:37Z
2020-11-25T07:34:43Z,42.805,6.029,13.2976,4.59978,2470.264,2020-11-25T09:35:40Z
2020-11-25T07:37:46Z,42.805,6.029,13.2975,4.59978,2470.273,2020-11-25T09:38:43Z
2020-11-25T07:40:49Z,42.805,6.029,13.2976,4.59978,2470.227,2020-11-25T09:41:46Z
2020-11-25T07:43:52Z,42.805,6.029,13.2971,4.59979,2470.273,2020-11-25T09:44:49Z
2020-11-25T07:46:55Z,42.805,6.029,13.2976,4.59977,2470.264,2020-11-25T09:47:53Z
2020-11-25T07:49:58Z,42.805,6.029,13.2978,4.59978,2470.227,2020-11-25T09:50:56Z
2020-11-25T07:53:02Z,42.805,6.029,13.2974,4.59978,2470.25,2020-11-25T09:53:59Z
2020-11-25T07:56:05Z,42.805,6.029,13.2976,4.59977,2470.24,2020-11-25T09:57:02Z
2020-11-25T07:59:08Z,42.805,6.029,13.2973,4.59979,2470.24,2020-11-25T10:00:05Z
2020-11-25T08:02:11Z,42.805,6.029,13.2977,4.59978,2470.24,2020-11-25T10:03:08Z
2020-11-25T08:05:14Z,42.805,6.029,13.2977,4.59978,2470.203,2020-11-25T10:06:11Z
2020-11-25T08:08:17Z,42.805,6.029,13.2978,4.59978,2470.25,2020-11-25T10:09:15Z
2020-11-25T08:11:20Z,42.805,6.029,13.2976,4.59978,2470.24,2020-11-25T10:12:18Z
2020-11-25T08:14:23Z,42.805,6.029,13.2974,4.59977,2470.273,2020-11-25T10:15:21Z
2020-11-25T08:17:27Z,42.805,6.029,13.2971,4.59978,2470.24,2020-11-25T10:18:24Z
2020-11-25T08:20:30Z,42.805,6.029,13.2974,4.59978,2470.227,2020-11-25T10:21:27Z
2020-11-25T08:23:33Z,42.805,6.029,13.2974,4.59979,2470.25,2020-11-25T10:24:30Z
2020-11-25T08:26:36Z,42.805,6.029,13.2974,4.59978,2470.264,2020-11-25T10:27:33Z
2020-11-25T08:29:39Z,42.805,6.029,13.2974,4.59978,2470.203,2020-11-25T10:30:36Z
2020-11-25T08:32:42Z,42.805,6.029,13.2973,4.59978,2470.203,2020-11-25T10:33:40Z
2020-11-25T08:35:45Z,42.805,6.029,13.2974,4.59978,2470.203,2020-11-25T10:36:43Z
2020-11-25T08:38:48Z,42.805,6.029,13.2974,4.59978,2470.227,2020-11-25T10:39:46Z
2020-11-25T08:41:52Z,42.805,6.029,13.2975,4.59978,2470.24,2020-11-25T10:42:49Z
2020-11-25T08:44:55Z,42.805,6.029,13.2971,4.59978,2470.217,2020-11-25T10:45:52Z
2020-11-25T08:47:58Z,42.805,6.029,13.2976,4.59977,2470.217,2020-11-25T10:48:55Z
2020-11-25T08:51:01Z,42.805,6.029,13.2976,4.59978,2470.203,2020-11-25T10:51:58Z
2020-11-25T08:54:04Z,42.805,6.029,13.2979,4.59977,2470.18,2020-11-25T10:55:01Z
2020-11-25T08:57:07Z,42.805,6.029,13.2975,4.59977,2470.25,2020-11-25T10:58:05Z
2020-11-25T09:00:10Z,42.805,6.029,13.2976,4.59978,2470.217,2020-11-25T11:01:08Z
2020-11-25T09:03:13Z,42.805,6.029,13.2971,4.59978,2470.24,2020-11-25T11:04:11Z
2020-11-25T09:06:17Z,42.805,6.029,13.2974,4.59976,2470.24,2020-11-25T11:07:14Z
2020-11-25T09:09:20Z,42.805,6.029,13.2975,4.59977,2470.18,2020-11-25T11:10:17Z
2020-11-25T09:12:23Z,42.805,6.029,13.2976,4.59978,2470.217,2020-11-25T11:13:20Z
2020-11-25T09:15:26Z,42.805,6.029,13.2974,4.59978,2470.227,2020-11-25T11:16:23Z
2020-11-25T09:18:29Z,42.805,6.029,13.2976,4.59977,2470.18,2020-11-25T11:19:26Z
2020-11-25T09:21:32Z,42.805,6.029,13.2972,4.59978,2470.264,2020-11-25T11:22:30Z
2020-11-25T09:24:35Z,42.805,6.029,13.2971,4.59978,2470.213,2020-11-25T11:25:33Z
2020-11-25T09:27:38Z,42.805,6.029,13.2977,4.59978,2470.25,2020-11-25T11:28:36Z
2020-11-25T09:30:42Z,42.805,6.029,13.2972,4.59977,2470.25,2020-11-25T11:31:39Z
2020-11-25T09:33:45Z,42.805,6.029,13.2974,4.59976,2470.217,2020-11-25T11:34:42Z
2020-11-25T09:36:48Z,42.805,6.029,13.2975,4.59977,2470.24,2020-11-25T11:37:45Z
2020-11-25T09:39:51Z,42.805,6.029,13.2971,4.59977,2470.217,2020-11-25T11:40:48Z
2020-11-25T09:42:54Z,42.805,6.029,13.2972,4.59976,2470.24,2020-11-25T11:43:51Z
2020-11-25T09:45:57Z,42.805,6.029,13.2972,4.59978,2470.194,2020-11-25T11:46:55Z
2020-11-25T09:49:00Z,42.805,6.029,13.2974,4.59978,2470.203,2020-11-25T11:49:58Z
2020-11-25T09:52:03Z,42.805,6.029,13.2976,4.59977,2470.203,2020-11-25T11:53:01Z
2020-11-25T09:55:07Z,42.805,6.029,13.2979,4.59978,2470.203,2020-11-25T11:56:04Z
2020-11-25T09:58:10Z,42.805,6.029,13.2974,4.59976,2470.227,2020-11-25T11:59:07Z
2020-11-25T10:01:13Z,42.805,6.029,13.2978,4.59978,2470.217,2020-11-25T12:02:10Z
2020-11-25T10:04:16Z,42.805,6.029,13.2976,4.59978,2470.18,2020-11-25T12:05:13Z
2020-11-25T10:07:19Z,42.805,6.029,13.2975,4.59976,2470.18,2020-11-25T12:08:16Z
2020-11-25T10:10:22Z,42.805,6.029,13.2973,4.59978,2470.194,2020-11-25T12:11:20Z
2020-11-25T10:13:25Z,42.805,6.029,13.2974,4.59977,2470.227,2020-11-25T12:14:23Z
2020-11-25T10:16:28Z,42.805,6.029,13.2974,4.59978,2470.217,2020-11-25T12:17:26Z
2020-11-25T10:19:32Z,42.805,6.029,13.2974,4.59978,2470.227,2020-11-25T12:20:29Z
2020-11-25T10:22:35Z,42.805,6.029,13.2976,4.59978,2470.227,2020-11-25T12:23:32Z
2020-11-25T10:25:38Z,42.805,6.029,13.2973,4.59976,2470.203,2020-11-25T12:26:35Z
2020-11-25T10:28:41Z,42.805,6.029,13.2971,4.59976,2470.227,2020-11-25T12:29:38Z
2020-11-25T10:31:44Z,42.805,6.029,13.2976,4.59978,2470.227,2020-11-25T12:32:41Z
2020-11-25T10:34:47Z,42.805,6.029,13.2975,4.59976,2470.217,2020-11-25T12:35:45Z
2020-11-25T10:37:50Z,42.805,6.029,13.2973,4.59977,2470.203,2020-11-25T12:38:48Z
2020-11-25T10:40:54Z,42.805,6.029,13.2972,4.59977,2470.18,2020-11-25T12:41:51Z
2020-11-25T10:43:57Z,42.805,6.029,13.2973,4.59978,2470.203,2020-11-25T12:44:54Z
2020-11-25T10:47:00Z,42.805,6.029,13.2974,4.59977,2470.217,2020-11-25T12:47:57Z
2020-11-25T10:50:03Z,42.805,6.029,13.2974,4.59976,2470.227,2020-11-25T12:51:00Z
2020-11-25T10:53:06Z,42.805,6.029,13.2976,4.59977,2470.217,2020-11-25T12:54:03Z
2020-11-25T10:56:09Z,42.805,6.029,13.2974,4.59976,2470.18,2020-11-25T12:57:06Z
2020-11-25T10:59:12Z,42.805,6.029,13.2979,4.59976,2470.24,2020-11-25T13:00:10Z
2020-11-25T11:02:15Z,42.805,6.029,13.2974,4.59978,2470.227,2020-11-25T13:03:13Z
2020-11-25T11:05:19Z,42.805,6.029,13.2971,4.59978,2470.203,2020-11-25T13:06:16Z
2020-11-25T11:08:22Z,42.805,6.029,13.2977,4.59977,2470.203,2020-11-25T13:09:19Z
2020-11-25T11:11:25Z,42.805,6.029,13.2974,4.59977,2470.217,2020-11-25T13:12:22Z
2020-11-25T11:14:28Z,42.805,6.029,13.2974,4.59978,2470.227,2020-11-25T13:15:25Z
2020-11-25T11:17:31Z,42.805,6.029,13.2978,4.59977,2470.203,2020-11-25T13:18:28Z
2020-11-25T11:20:34Z,42.805,6.029,13.2975,4.59976,2470.24,2020-11-25T13:21:31Z
2020-11-25T11:23:37Z,42.805,6.029,13.2976,4.59976,2470.24,2020-11-25T13:24:35Z
2020-11-25T11:26:40Z,42.805,6.029,13.2976,4.59976,2470.203,2020-11-25T13:27:38Z
2020-11-25T11:29:44Z,42.805,6.029,13.2975,4.59977,2470.227,2020-11-25T13:30:41Z
2020-11-25T11:32:47Z,42.805,6.029,13.2976,4.59977,2470.18,2020-11-25T13:33:44Z
2020-11-25T11:35:50Z,42.805,6.029,13.2979,4.59977,2470.203,2020-11-25T13:36:47Z
2020-11-25T11:38:53Z,42.805,6.029,13.2974,4.59976,2470.264,2020-11-25T13:39:50Z
2020-11-25T11:41:56Z,42.805,6.029,13.2976,4.59977,2470.217,2020-11-25T13:42:53Z
2020-11-25T11:44:59Z,42.805,6.029,13.2975,4.59977,2470.217,2020-11-25T13:45:57Z
2020-11-25T11:48:02Z,42.805,6.029,13.2974,4.59977,2470.24,2020-11-25T13:49:00Z
2020-11-25T11:51:05Z,42.805,6.029,13.2972,4.59976,2470.203,2020-11-25T13:52:03Z
2020-11-25T11:54:09Z,42.805,6.029,13.2974,4.59978,2470.203,2020-11-25T13:55:06Z
2020-11-25T11:57:12Z,42.805,6.029,13.2974,4.59977,2470.203,2020-11-25T13:58:09Z
2020-11-25T12:00:15Z,42.805,6.029,13.2973,4.59977,2470.217,2020-11-25T14:01:12Z
2020-11-25T12:03:18Z,42.805,6.029,13.2976,4.59976,2470.227,2020-11-25T14:04:15Z
2020-11-25T12:06:21Z,42.805,6.029,13.2974,4.59976,2470.24,2020-11-25T14:07:18Z
2020-11-25T12:09:24Z,42.805,6.029,13.2976,4.59977,2470.25,2020-11-25T14:10:21Z
2020-11-25T12:12:27Z,42.805,6.029,13.2975,4.59978,2470.203,2020-11-25T14:13:25Z
2020-11-25T12:15:30Z,42.805,6.029,13.2976,4.59977,2470.24,2020-11-25T14:16:28Z
2020-11-25T12:18:34Z,42.805,6.029,13.2972,4.59977,2470.203,2020-11-25T14:19:31Z
2020-11-25T12:21:37Z,42.805,6.029,13.2973,4.59978,2470.25,2020-11-25T14:22:34Z
2020-11-25T12:24:40Z,42.805,6.029,13.2972,4.59979,2470.227,2020-11-25T14:25:37Z
2020-11-25T12:27:43Z,42.805,6.029,13.2975,4.59978,2470.227,2020-11-25T14:28:40Z
2020-11-25T12:30:46Z,42.805,6.029,13.2976,4.59977,2470.227,2020-11-25T14:31:43Z
2020-11-25T12:33:49Z,42.805,6.029,13.2971,4.59977,2470.264,2020-11-25T14:34:47Z
2020-11-25T12:36:52Z,42.805,6.029,13.2975,4.59978,2470.25,2020-11-25T14:37:50Z
2020-11-25T12:39:55Z,42.805,6.029,13.2977,4.59977,2470.25,2020-11-25T14:40:53Z
2020-11-25T12:42:59Z,42.805,6.029,13.2976,4.59977,2470.227,2020-11-25T14:43:56Z
2020-11-25T12:46:02Z,42.805,6.029,13.2976,4.59978,2470.264,2020-11-25T14:46:59Z
2020-11-25T12:49:05Z,42.805,6.029,13.2971,4.59978,2470.25,2020-11-25T14:50:02Z
2020-11-25T12:52:08Z,42.805,6.029,13.2975,4.59978,2470.227,2020-11-25T14:53:05Z
2020-11-25T12:55:11Z,42.805,6.029,13.2972,4.59977,2470.25,2020-11-25T14:56:08Z
2020-11-25T12:58:14Z,42.805,6.029,13.2973,4.59978,2470.227,2020-11-25T14:59:12Z
2020-11-25T13:01:17Z,42.805,6.029,13.2976,4.59978,2470.227,2020-11-25T15:02:15Z
2020-11-25T13:04:20Z,42.805,6.029,13.2972,4.59978,2470.287,2020-11-25T15:05:18Z
2020-11-25T13:07:24Z,42.805,6.029,13.2979,4.59978,2470.297,2020-11-25T15:08:21Z
2020-11-25T13:10:27Z,42.805,6.029,13.2973,4.59978,2470.264,2020-11-25T15:11:24Z
2020-11-25T13:13:30Z,42.805,6.029,13.2975,4.59978,2470.25,2020-11-25T15:14:27Z
2020-11-25T13:16:33Z,42.805,6.029,13.2973,4.59978,2470.264,2020-11-25T15:17:30Z
2020-11-25T13:19:36Z,42.805,6.029,13.2979,4.59978,2470.227,2020-11-25T15:20:33Z
2020-11-25T13:22:39Z,42.805,6.029,13.2975,4.59978,2470.273,2020-11-25T15:23:37Z
2020-11-25T13:25:42Z,42.805,6.029,13.2974,4.59978,2470.264,2020-11-25T15:26:40Z
2020-11-25T13:28:46Z,42.805,6.029,13.2977,4.59978,2470.264,2020-11-25T15:29:43Z
2020-11-25T13:31:49Z,42.805,6.029,13.2974,4.59978,2470.25,2020-11-25T15:32:46Z
2020-11-25T13:34:52Z,42.805,6.029,13.2975,4.59978,2470.25,2020-11-25T15:35:49Z
2020-11-25T13:37:55Z,42.805,6.029,13.2973,4.59978,2470.273,2020-11-25T15:38:52Z
2020-11-25T13:40:58Z,42.805,6.029,13.2975,4.59977,2470.236,2020-11-25T15:41:55Z
2020-11-25T13:44:01Z,42.805,6.029,13.2976,4.59977,2470.287,2020-11-25T15:44:58Z
2020-11-25T13:47:04Z,42.805,6.029,13.2979,4.59978,2470.273,2020-11-25T15:48:02Z
2020-11-25T13:50:07Z,42.805,6.029,13.2976,4.59978,2470.273,2020-11-25T15:51:05Z
2020-11-25T13:53:10Z,42.805,6.029,13.2974,4.59978,2470.273,2020-11-25T15:54:08Z
2020-11-25T13:56:14Z,42.805,6.029,13.2977,4.59978,2470.273,2020-11-25T15:57:11Z
2020-11-25T13:59:17Z,42.805,6.029,13.2974,4.59978,2470.273,2020-11-25T16:00:14Z
2020-11-25T14:02:20Z,42.805,6.029,13.2975,4.59978,2470.25,2020-11-25T16:03:17Z
2020-11-25T14:05:23Z,42.805,6.029,13.2973,4.59978,2470.297,2020-11-25T16:06:20Z
2020-11-25T14:08:26Z,42.805,6.029,13.2977,4.59977,2470.297,2020-11-25T16:09:23Z
2020-11-25T14:11:29Z,42.805,6.029,13.2974,4.59978,2470.273,2020-11-25T16:12:27Z
2020-11-25T14:14:32Z,42.805,6.029,13.2976,4.59978,2470.273,2020-11-25T16:15:30Z
2020-11-25T14:17:36Z,42.805,6.029,13.2975,4.59978,2470.297,2020-11-25T16:18:33Z
2020-11-25T14:20:39Z,42.805,6.029,13.2971,4.59978,2470.273,2020-11-25T16:21:36Z
2020-11-25T14:23:42Z,42.805,6.029,13.2975,4.59978,2470.334,2020-11-25T16:24:39Z
2020-11-25T14:26:45Z,42.805,6.029,13.2973,4.59978,2470.31,2020-11-25T16:27:42Z
2020-11-25T14:29:48Z,42.805,6.029,13.2977,4.59978,2470.273,2020-11-25T16:30:45Z
2020-11-25T14:32:51Z,42.805,6.029,13.2974,4.59977,2470.25,2020-11-25T16:33:48Z
2020-11-25T14:35:54Z,42.805,6.029,13.2977,4.59979,2470.32,2020-11-25T16:36:52Z
2020-11-25T14:38:57Z,42.805,6.029,13.2974,4.59979,2470.334,2020-11-25T16:39:55Z
2020-11-25T14:42:01Z,42.805,6.029,13.2974,4.59977,2470.297,2020-11-25T16:42:58Z
2020-11-25T14:45:04Z,42.805,6.029,13.2976,4.59978,2470.32,2020-11-25T16:46:01Z
2020-11-25T14:48:07Z,42.805,6.029,13.2976,4.59978,2470.297,2020-11-25T16:49:04Z
2020-11-25T14:51:10Z,42.805,6.029,13.2976,4.59978,2470.287,2020-11-25T16:52:07Z
2020-11-25T14:54:13Z,42.805,6.029,13.2974,4.59978,2470.334,2020-11-25T16:55:10Z
2020-11-25T14:57:16Z,42.805,6.029,13.2977,4.59978,2470.297,2020-11-25T16:58:13Z
2020-11-25T15:00:19Z,42.805,6.029,13.2977,4.59978,2470.297,2020-11-25T17:01:17Z
2020-11-25T15:03:22Z,42.805,6.029,13.2976,4.59978,2470.297,2020-11-25T17:04:20Z